Total_Precipitation_Accumulation
1.46 1.42 1.44 1.51 1.55 1.60 1.59 1.47 1.33 1.26 1.29 1.41 1.49 1.49 1.49 1.50 1.46 1.42 1.32 1.26 1.26 1.26 1.31 1.38 1.34 1.29 1.35 1.30 1.24 1.21 1.23 1.38 1.41 0.80 0.59 0.62 0.83 1.03 1.09 1.12 1.15 1.11 1.06
1.44 1.52 1.49 1.50 1.61 1.64 1.57 1.50 1.43 1.36 1.31 1.35 1.48 1.59 1.57 1.53 1.50 1.48 1.45 1.43 1.46 1.41 1.34 1.36 1.38 1.37 1.40 1.38 1.38 1.30 1.20 1.18 1.30 1.09 0.76 0.74 0.86 1.04 1.11 1.16 1.23 1.21 1.14
1.26 1.42 1.55 1.58 1.62 1.67 1.62 1.52 1.50 1.50 1.46 1.40 1.45 1.57 1.62 1.60 1.56 1.48 1.46 1.49 1.55 1.61 1.58 1.56 1.49 1.48 1.49 1.44 1.44 1.40 1.29 1.19 1.20 1.22 0.97 0.84 0.90 1.01 1.15 1.24 1.28 1.27 1.27
1.07 1.26 1.39 1.51 1.63 1.67 1.66 1.62 1.55 1.52 1.50 1.47 1.43 1.47 1.57 1.66 1.72 1.71 1.72 1.65 1.64 1.66 1.68 1.70 1.66 1.65 1.60 1.55 1.56 1.51 1.47 1.49 1.44 1.44 1.26 1.06 1.01 1.03 1.22 1.42 1.52 1.37 1.34
0.94 1.09 1.28 1.39 1.56 1.64 1.64 1.63 1.64 1.65 1.53 1.49 1.46 1.41 1.45 1.71 2.05 2.02 1.91 1.82 1.69 1.60 1.54 1.54 1.61 1.78 1.84 1.90 1.93 1.82 1.79 1.91 1.87 1.78 1.56 1.35 1.20 1.24 1.36 1.45 1.68 1.64 1.53
0.93 0.96 1.15 1.36 1.51 1.60 1.61 1.64 1.64 1.64 1.60 1.52 1.46 1.42 1.45 1.66 2.17 2.22 1.88 1.62 1.49 1.46 1.45 1.36 1.34 1.55 1.65 1.80 1.95 1.96 2.03 2.20 2.28 2.19 1.90 1.62 1.34 1.28 1.40 1.63 1.85 2.05 1.97
0.81 0.84 0.97 1.16 1.35 1.48 1.54 1.61 1.72 1.70 1.64 1.58 1.47 1.39 1.34 1.45 1.91 2.00 1.78 1.45 1.29 1.27 1.30 1.28 1.25 1.28 1.41 1.36 1.55 1.68 1.72 1.90 2.15 2.27 2.23 1.77 1.49 1.37 1.67 1.88 1.93 2.07 1.96
0.72 0.72 0.79 0.92 1.09 1.29 1.46 1.53 1.62 1.72 1.71 1.61 1.50 1.41 1.37 1.34 1.72 1.88 1.74 1.35 1.18 1.11 1.10 1.08 1.09 1.13 1.25 1.41 1.50 1.51 1.43 1.51 1.80 2.00 2.16 1.97 1.76 1.72 1.99 2.29 2.42 2.43 2.21
0.67 0.69 0.70 0.77 0.89 1.06 1.25 1.37 1.49 1.60 1.64 1.59 1.50 1.35 1.30 1.31 1.54 1.83 1.80 1.40 1.22 1.08 1.03 1.02 0.99 0.99 1.31 1.57 1.52 1.44 1.31 1.31 1.48 1.78 2.01 2.10 2.17 2.30 2.47 2.77 2.96 2.92 2.73
0.67 0.68 0.69 0.73 0.77 0.89 1.05 1.21 1.37 1.48 1.55 1.54 1.51 1.36 1.26 1.22 1.42 1.78 1.95 1.47 1.27 1.14 1.04 1.00 1.11 1.16 1.41 1.51 1.42 1.47 1.51 1.34 1.27 1.34 1.44 1.56 1.64 1.82 2.20 2.48 2.75 2.92 2.86
0.63 0.63 0.66 0.67 0.70 0.78 0.95 1.09 1.24 1.37 1.47 1.46 1.41 1.37 1.25 1.23 1.28 1.56 1.95 1.66 1.35 1.24 1.19 1.12 1.07 1.25 1.31 1.38 1.44 1.44 1.60 1.47 1.35 1.43 1.44 1.38 1.40 1.54 1.74 2.04 2.43 2.79 2.99
0.58 0.58 0.61 0.61 0.65 0.72 0.86 1.00 1.12 1.28 1.41 1.42 1.34 1.38 1.35 1.29 1.28 1.46 1.74 1.76 1.53 1.28 1.19 1.06 1.06 1.23 1.27 1.35 1.36 1.47 1.58 1.53 1.42 1.43 1.37 1.34 1.36 1.45 1.57 1.78 2.05 2.32 2.49
0.55 0.56 0.57 0.60 0.64 0.68 0.75 0.89 1.10 1.20 1.31 1.38 1.28 1.29 1.36 1.35 1.38 1.59 1.61 1.62 1.59 1.40 1.34 1.36 1.27 1.31 1.30 1.24 1.30 1.36 1.37 1.35 1.42 1.44 1.32 1.23 1.24 1.34 1.42 1.55 1.72 1.95 2.13
0.54 0.56 0.56 0.59 0.66 0.65 0.69 0.79 0.99 1.15 1.25 1.34 1.26 1.20 1.24 1.34 1.51 1.68 1.62 1.51 1.55 1.50 1.46 1.47 1.42 1.38 1.29 1.23 1.23 1.17 1.15 1.25 1.33 1.33 1.21 1.10 1.09 1.22 1.36 1.48 1.65 1.83 2.10
0.54 0.58 0.57 0.57 0.63 0.67 0.73 0.80 0.90 1.04 1.27 1.47 1.38 1.30 1.40 1.59 1.73 1.90 1.79 1.64 1.65 1.66 1.58 1.48 1.37 1.33 1.34 1.25 1.16 1.09 1.09 1.17 1.22 1.15 1.14 1.12 1.12 1.20 1.29 1.40 1.64 1.80 2.01
0.56 0.56 0.59 0.62 0.62 0.64 0.73 0.87 0.99 1.04 1.15 1.18 1.27 1.35 1.34 1.60 1.68 1.63 1.60 1.55 1.61 1.72 1.63 1.48 1.27 1.19 1.19 1.15 1.13 1.10 1.05 1.07 1.08 1.10 1.16 1.18 1.20 1.25 1.29 1.35 1.56 1.77 1.86
0.60 0.60 0.62 0.64 0.62 0.63 0.69 0.82 0.98 1.05 1.11 1.12 1.15 1.25 1.33 1.48 1.54 1.52 1.51 1.43 1.41 1.42 1.38 1.26 1.15 1.09 1.04 1.02 1.05 1.03 1.02 1.01 1.05 1.10 1.13 1.12 1.15 1.19 1.25 1.32 1.44 1.59 1.68
0.61 0.65 0.69 0.67 0.66 0.68 0.74 0.83 0.94 1.05 1.12 1.15 1.20 1.30 1.38 1.42 1.46 1.50 1.55 1.52 1.47 1.33 1.16 1.13 1.13 1.09 1.05 1.04 1.05 1.06 1.02 1.02 1.08 1.14 1.14 1.09 1.11 1.20 1.24 1.26 1.31 1.46 1.57
0.60 0.63 0.69 0.72 0.71 0.72 0.77 0.86 0.95 1.03 1.09 1.15 1.22 1.41 1.54 1.54 1.53 1.56 1.51 1.34 1.24 1.18 1.12 1.09 1.10 1.14 1.13 1.11 1.08 1.09 1.10 1.10 1.10 1.15 1.14 1.11 1.11 1.19 1.22 1.20 1.25 1.38 1.48
0.60 0.68 0.74 0.76 0.75 0.77 0.82 0.90 0.98 1.05 1.09 1.15 1.21 1.32 1.50 1.59 1.57 1.58 1.46 1.29 1.21 1.14 1.09 1.09 1.08 1.12 1.16 1.16 1.14 1.14 1.16 1.16 1.17 1.20 1.14 1.10 1.11 1.17 1.21 1.20 1.22 1.26 1.30
0.64 0.67 0.74 0.76 0.76 0.81 0.87 0.94 1.01 1.09 1.11 1.12 1.14 1.23 1.46 1.47 1.38 1.32 1.35 1.35 1.29 1.20 1.13 1.13 1.10 1.10 1.11 1.12 1.12 1.13 1.16 1.15 1.15 1.17 1.11 1.03 1.03 1.11 1.14 1.16 1.14 1.11 1.14
0.67 0.70 0.72 0.74 0.79 0.86 0.94 0.98 1.05 1.11 1.10 1.10 1.13 1.22 1.33 1.19 1.14 1.16 1.21 1.27 1.27 1.22 1.15 1.17 1.16 1.10 1.11 1.14 1.16 1.17 1.17 1.14 1.10 1.09 1.06 1.00 0.99 1.02 1.03 1.04 1.02 1.01 1.04
0.69 0.74 0.77 0.78 0.81 0.92 0.98 0.95 1.02 1.08 1.11 1.10 1.11 1.13 1.18 1.17 1.14 1.12 1.17 1.20 1.22 1.20 1.15 1.15 1.15 1.08 1.04 1.06 1.10 1.19 1.26 1.21 1.11 1.09 1.12 1.06 1.00 0.98 0.94 0.91 0.88 0.91 0.97
0.73 0.77 0.84 0.88 0.88 0.90 0.95 0.98 1.00 1.07 1.13 1.12 1.08 1.07 1.14 1.18 1.17 1.13 1.12 1.13 1.17 1.16 1.12 1.13 1.13 1.07 1.01 0.99 1.00 1.04 1.09 1.13 1.13 1.11 1.11 1.09 1.01 0.92 0.90 0.89 0.83 0.84 0.92
0.77 0.81 0.88 0.94 0.96 0.97 0.99 1.00 1.02 1.07 1.12 1.10 1.08 1.07 1.08 1.11 1.13 1.12 1.09 1.10 1.12 1.09 1.03 1.04 1.09 1.09 1.00 0.94 0.93 0.94 1.05 1.11 1.13 1.19 1.27 1.23 1.07 0.91 0.87 0.87 0.85 0.85 0.91
0.77 0.82 0.91 0.96 0.97 1.01 1.05 1.07 1.06 1.07 1.10 1.08 1.06 1.07 1.08 1.11 1.14 1.12 1.10 1.11 1.15 1.11 1.03 1.01 1.02 1.00 0.95 0.92 0.92 0.95 1.00 1.01 1.07 1.18 1.31 1.37 1.19 0.97 0.91 0.90 0.85 0.86 0.89